Wind_Speed
19 19 18 18 18 19 18 18 19 19 19 19 19 19 18 18 18 18 18 19 20 20 21 20 20 20 20 19 19 19 19 19 19 19 19 19 20 19 20 21 21 22 23
18 17 17 18 19 20 19 20 20 19 18 18 18 18 18 19 20 19 19 20 20 20 21 19 19 19 18 18 18 19 18 18 18 19 20 20 20 21 21 22 23 24 24
18 19 18 19 20 19 19 19 18 18 18 18 19 20 20 20 20 20 20 20 20 20 20 19 19 18 18 18 19 18 18 17 18 19 20 21 21 21 22 23 24 24 25
18 18 19 19 19 19 18 18 18 18 19 19 20 20 20 21 20 20 20 20 20 20 21 20 19 18 18 18 18 18 17 18 19 20 21 22 22 23 24 24 25 25 25
16 17 18 19 19 18 18 18 18 18 19 19 19 20 20 20 20 20 19 20 20 19 19 19 19 19 18 17 17 17 18 19 19 20 21 22 23 24 24 25 25 26 26
15 16 17 17 18 18 18 18 18 18 18 18 19 19 19 18 19 19 18 19 19 18 18 18 18 18 17 16 17 17 18 19 20 21 21 22 23 23 24 25 25 26 26
14 15 16 16 17 18 18 18 18 17 17 18 18 18 17 17 17 17 18 19 19 18 18 18 18 18 17 17 18 18 19 19 20 20 20 22 23 24 25 25 26 27 27
15 15 15 15 16 16 16 16 16 16 16 16 16 16 16 16 17 17 17 17 17 18 18 18 18 17 17 17 18 19 19 19 20 20 21 23 23 25 26 26 26 27 28
14 14 14 14 14 14 13 13 13 14 14 15 14 15 15 16 17 16 16 16 17 16 17 17 16 16 17 18 19 19 18 18 19 21 21 23 24 25 26 26 27 27 28
12 12 12 13 13 13 12 12 12 12 13 13 13 13 14 15 14 15 14 15 16 16 15 15 15 16 16 17 18 18 18 19 20 20 21 22 24 25 25 26 27 27 28
12 12 12 12 13 13 12 12 12 12 12 12 11 11 12 11 11 12 13 13 13 13 13 14 14 15 16 16 17 17 18 19 19 20 22 22 23 24 25 26 26 27 28
12 12 13 13 12 12 13 13 12 12 12 11 11 10 10 10 10 10 10 11 12 13 13 13 13 15 16 17 17 17 18 19 20 20 21 22 23 24 25 25 26 27 28
12 13 13 12 12 11 11 11 10 10 10 10 9 9 9 8 8 9 9 10 10 10 11 12 13 14 16 16 17 17 18 18 19 21 22 23 23 23 25 25 25 27 28
11 13 13 11 11 10 9 9 9 9 8 8 8 7 7 7 7 7 7 7 8 9 10 12 13 14 15 16 16 16 16 17 19 20 21 23 23 24 24 25 26 27 28
11 12 11 11 10 9 9 8 8 7 7 6 6 6 6 6 6 5 6 7 8 9 10 11 12 13 13 14 15 15 16 17 18 19 20 21 22 23 25 25 26 27 28
12 12 11 11 10 8 8 8 7 6 6 6 6 6 5 4 4 5 6 7 8 9 9 10 11 11 12 12 13 15 16 17 18 19 20 21 22 23 24 25 27 28 28
11 11 10 10 9 8 7 6 6 5 5 5 5 5 4 4 5 5 6 8 8 9 9 10 11 12 13 13 14 15 15 16 17 18 19 21 23 24 25 26 27 28 28
10 10 9 9 9 7 7 5 5 5 4 4 4 5 4 5 6 7 8 8 8 9 9 10 11 12 12 13 14 15 15 16 17 18 20 21 23 24 25 26 27 28 28
10 9 9 8 8 7 7 6 6 5 5 5 5 5 5 5 6 7 8 8 7 8 9 10 10 11 12 13 14 14 15 16 17 18 19 21 24 25 26 26 27 27 27
9 9 8 8 7 7 7 6 6 5 5 5 5 5 5 6 7 8 8 7 7 8 9 10 11 13 13 14 14 15 16 17 18 19 20 22 24 25 26 26 26 27 27
8 8 7 7 7 7 6 6 6 5 4 5 5 5 5 6 7 7 7 7 8 9 10 11 12 13 13 14 15 16 17 18 18 20 21 22 24 25 25 26 26 26 26
7 7 7 6 6 6 6 6 6 6 6 6 6 6 6 7 7 8 7 8 8 10 10 11 12 14 14 14 15 16 17 18 19 20 21 23 24 25 25 26 26 26 26
7 7 7 6 6 6 6 6 6 6 6 6 6 6 7 7 8 8 8 8 9 10 11 12 13 14 15 16 16 17 18 19 20 20 21 23 24 25 25 25 25 26 26
7 7 7 7 6 6 6 6 6 6 7 7 7 7 7 8 8 8 9 9 10 11 12 13 15 16 16 17 17 18 19 20 20 20 22 23 24 25 25 24 25 26 26
8 7 6 6 6 6 6 6 6 6 7 7 7 8 8 9 10 10 11 11 12 12 13 15 15 16 18 18 18 19 20 21 22 22 23 24 25 25 24 24 25 26 26
7 7 6 6 6 6 6 6 6 7 8 8 8 9 9 9 10 11 12 12 13 13 14 15 17 17 18 19 19 19 21 22 23 23 24 24 25 25 24 24 25 26 26
Wind_Direction
274 275 273 271 273 274 273 272 272 273 274 274 273 271 268 267 266 267 269 270 267 268 270 271 271 270 267 266 268 270 272 273 276 279 282 284 285 285 285 284 282 281 280
276 275 272 272 274 274 275 276 276 275 278 276 272 270 270 268 265 265 267 267 269 270 272 273 272 270 265 267 269 271 272 273 276 280 283 284 285 285 286 285 283 282 282
279 280 273 275 277 275 275 277 279 281 280 276 274 273 271 271 269 267 269 270 270 274 275 277 275 273 273 270 269 273 277 276 277 279 281 283 284 286 287 286 285 283 282
278 281 279 278 278 278 277 280 280 282 281 277 275 274 275 273 270 268 267 269 270 272 273 275 274 275 277 277 273 273 277 278 279 280 282 284 285 288 288 288 285 284 283
280 282 280 280 281 282 281 282 283 284 282 279 277 275 275 275 272 269 268 269 269 271 273 271 271 274 276 276 275 276 278 279 280 281 284 287 288 289 289 289 288 286 284
284 286 284 284 285 283 283 285 286 287 285 281 278 277 277 275 272 269 269 269 270 272 272 273 272 273 275 277 277 277 280 282 282 283 287 289 290 290 290 289 288 288 287
289 292 290 288 286 285 284 286 286 285 287 287 282 279 275 274 273 270 273 271 269 270 271 274 273 271 272 275 278 279 284 285 283 284 288 290 290 290 290 290 290 289 289
294 296 295 294 290 287 285 286 287 287 288 288 283 278 278 275 273 273 275 273 266 267 268 269 269 269 274 278 282 284 285 285 285 285 290 292 292 291 291 290 290 290 290
299 298 297 295 293 290 289 289 291 291 292 289 284 280 279 278 272 272 272 272 269 268 269 269 271 273 277 282 285 286 285 285 287 291 294 293 291 292 292 293 292 291 290
307 309 303 299 297 295 294 294 295 297 297 293 290 289 281 281 275 269 268 269 269 272 273 274 274 276 280 284 285 285 285 287 289 294 296 296 294 294 295 295 295 293 291
310 311 307 304 300 297 296 297 296 297 301 299 295 292 290 283 276 271 270 270 273 273 274 275 278 280 283 286 286 286 286 289 290 293 296 298 299 298 298 297 296 293 292
315 313 308 305 304 301 298 297 296 296 299 300 298 291 288 281 276 273 274 277 277 275 278 281 284 286 286 288 288 288 289 291 293 296 300 302 302 301 301 301 299 297 295
321 322 319 312 313 310 304 301 300 297 295 296 295 294 286 282 281 285 289 285 282 280 281 285 290 293 291 289 289 289 291 294 297 298 300 302 304 305 305 303 303 302 300
329 330 332 325 319 315 313 311 307 305 304 304 305 301 289 283 289 295 294 294 294 292 290 294 297 298 295 292 291 292 296 298 299 300 302 303 305 306 308 308 307 306 305
332 336 338 339 332 324 320 315 309 311 316 316 315 316 303 296 291 293 299 303 301 301 301 302 304 302 297 295 296 297 298 299 301 304 306 308 310 310 311 311 310 309 308
333 333 337 341 340 334 327 326 325 326 326 323 320 320 311 303 301 301 307 308 304 302 303 304 304 305 304 300 302 302 303 305 308 311 313 315 316 315 313 313 312 311 310
335 338 339 342 343 343 342 340 342 339 336 334 332 330 323 318 313 310 311 312 311 309 310 310 312 313 312 312 310 312 314 315 315 316 318 319 319 318 317 316 316 315 313
337 339 346 352 351 353 355 355 355 351 348 349 350 352 341 328 320 316 315 316 314 317 318 317 318 319 319 319 320 322 320 321 321 321 320 321 323 323 321 321 319 318 317
336 339 344 352 358 1 8 10 5 3 3 0 356 348 340 333 329 327 323 320 318 320 323 325 325 322 321 325 328 326 324 325 326 326 326 326 327 326 325 323 322 321 320
341 345 352 359 3 5 9 10 6 9 10 7 357 347 345 346 341 335 329 324 325 328 328 327 328 328 328 330 329 329 330 330 330 330 328 328 329 329 329 328 326 325 323
344 348 348 353 359 3 5 8 6 5 2 358 353 352 348 346 345 343 338 336 334 333 330 329 330 334 332 331 330 330 332 332 331 331 330 329 330 330 331 330 329 328 326
344 346 346 349 356 359 360 0 359 360 359 349 345 347 346 347 348 350 347 342 337 338 337 337 339 338 336 333 331 331 333 333 333 332 331 331 331 331 331 332 332 331 330
348 349 348 348 351 353 353 354 360 357 356 353 350 348 348 348 348 349 349 345 344 345 344 342 342 343 342 338 336 332 331 333 333 334 334 333 332 331 332 333 333 333 333
341 342 338 338 342 346 348 350 351 349 347 348 349 348 348 349 349 350 351 348 345 342 341 339 339 340 340 340 339 336 334 334 333 334 333 332 333 333 334 335 336 336 336
337 339 344 344 344 345 344 343 342 344 346 347 349 349 350 351 351 349 346 343 341 339 339 338 337 337 338 338 337 337 336 335 335 334 333 333 334 334 334 335 336 337 338
330 331 339 346 350 350 347 346 344 348 349 348 347 349 349 347 345 344 345 343 339 336 335 335 336 337 338 337 337 337 337 337 336 335 335 334 335 336 336 336 337 339 341
Height
5832 5831 5830 5829 5828 5827 5826 5826 5825 5824 5824 5823 5822 5821 5821 5821 5821 5821 5821 5821 5821 5820 5819 5819 5819 5818 5818 5818 5818 5818 5817 5817 5816 5816 5815 5814 5813 5813 5812 5811 5810 5809 5808
5828 5827 5826 5825 5824 5823 5822 5821 5820 5820 5819 5818 5817 5817 5817 5817 5817 5816 5816 5816 5816 5816 5815 5814 5814 5813 5813 5814 5813 5813 5812 5812 5812 5811 5811 5810 5809 5808 5807 5805 5804 5803 5802
5825 5823 5822 5821 5820 5819 5818 5817 5816 5815 5814 5814 5813 5813 5812 5812 5812 5812 5812 5812 5812 5811 5811 5810 5810 5809 5809 5809 5809 5809 5808 5808 5807 5807 5806 5805 5804 5803 5802 5800 5798 5797 5796
5820 5819 5818 5817 5816 5815 5813 5813 5812 5810 5809 5808 5808 5807 5807 5807 5807 5806 5807 5807 5807 5807 5806 5806 5805 5805 5805 5805 5804 5804 5803 5803 5802 5801 5800 5799 5798 5797 5796 5794 5792 5791 5789
5817 5815 5814 5813 5812 5810 5809 5808 5807 5806 5804 5803 5803 5802 5802 5802 5801 5801 5802 5802 5802 5802 5802 5801 5801 5801 5801 5800 5800 5799 5799 5798 5797 5796 5795 5794 5792 5791 5789 5788 5786 5784 5782
5813 5811 5810 5809 5807 5806 5805 5804 5802 5801 5800 5799 5798 5797 5797 5796 5796 5796 5797 5796 5797 5797 5797 5797 5796 5796 5796 5796 5795 5795 5794 5793 5792 5791 5789 5788 5787 5785 5783 5781 5779 5777 5775
5809 5808 5806 5804 5803 5802 5800 5799 5798 5797 5795 5794 5793 5792 5792 5791 5791 5791 5791 5791 5792 5792 5792 5792 5792 5791 5791 5791 5791 5790 5789 5788 5786 5785 5783 5782 5780 5778 5776 5774 5772 5770 5768
5805 5804 5802 5801 5799 5797 5796 5795 5793 5792 5791 5790 5788 5788 5787 5786 5786 5786 5786 5786 5786 5787 5787 5787 5787 5787 5786 5786 5786 5785 5784 5782 5781 5779 5778 5776 5774 5771 5769 5767 5765 5763 5760
5802 5800 5798 5797 5795 5794 5792 5791 5789 5788 5787 5786 5784 5783 5782 5781 5781 5781 5781 5781 5781 5782 5782 5782 5782 5782 5782 5781 5781 5779 5778 5777 5775 5774 5772 5770 5768 5765 5762 5760 5757 5755 5753
5799 5797 5795 5793 5792 5790 5789 5787 5786 5785 5783 5781 5780 5779 5778 5777 5776 5776 5777 5777 5777 5777 5778 5778 5778 5777 5777 5776 5775 5774 5773 5771 5770 5768 5766 5764 5761 5759 5755 5752 5749 5747 5744
5796 5794 5792 5790 5788 5787 5785 5784 5782 5781 5779 5778 5776 5775 5774 5773 5773 5773 5773 5773 5774 5774 5774 5774 5774 5773 5772 5771 5770 5769 5767 5766 5765 5763 5760 5758 5755 5752 5748 5745 5742 5738 5735
5793 5790 5788 5787 5785 5783 5782 5780 5779 5778 5776 5774 5773 5772 5771 5770 5770 5770 5770 5770 5770 5771 5771 5770 5770 5769 5768 5767 5765 5764 5762 5761 5759 5757 5754 5752 5749 5745 5742 5738 5734 5731 5727
5790 5788 5786 5784 5782 5780 5779 5777 5776 5774 5773 5771 5770 5769 5769 5768 5768 5768 5768 5768 5768 5768 5768 5767 5766 5765 5763 5762 5760 5759 5758 5756 5754 5751 5749 5746 5743 5739 5735 5731 5727 5723 5719
5789 5786 5784 5782 5780 5778 5776 5775 5773 5772 5770 5769 5768 5767 5767 5767 5766 5766 5766 5766 5765 5765 5765 5764 5762 5760 5759 5757 5755 5754 5753 5751 5748 5746 5743 5740 5737 5733 5729 5725 5720 5715 5711
5787 5785 5783 5780 5778 5776 5775 5773 5772 5770 5769 5768 5767 5766 5765 5765 5765 5765 5765 5764 5763 5763 5762 5760 5758 5756 5755 5753 5751 5750 5748 5746 5743 5741 5737 5734 5730 5726 5722 5718 5713 5708 5704
5786 5784 5781 5779 5777 5775 5773 5771 5770 5769 5768 5767 5766 5765 5764 5764 5764 5764 5763 5762 5761 5760 5759 5757 5755 5753 5751 5749 5748 5746 5743 5741 5738 5735 5732 5728 5724 5720 5716 5711 5706 5701 5696
5785 5783 5780 5778 5776 5774 5772 5771 5769 5768 5767 5766 5765 5764 5764 5763 5763 5762 5762 5761 5759 5758 5756 5754 5752 5750 5748 5746 5744 5741 5739 5736 5733 5730 5727 5723 5719 5714 5709 5705 5700 5694 5689
5784 5782 5779 5777 5775 5773 5771 5770 5769 5768 5767 5766 5765 5764 5764 5763 5762 5761 5760 5759 5757 5755 5754 5752 5750 5748 5746 5743 5740 5738 5735 5732 5729 5726 5722 5718 5713 5708 5703 5699 5693 5688 5682
5783 5781 5779 5777 5775 5773 5772 5771 5770 5769 5767 5766 5765 5765 5764 5763 5762 5760 5758 5757 5755 5754 5752 5750 5748 5745 5743 5740 5738 5735 5732 5728 5725 5721 5718 5713 5709 5704 5698 5693 5688 5682 5676
5782 5780 5778 5777 5775 5774 5772 5771 5770 5769 5768 5767 5766 5765 5763 5762 5761 5759 5757 5755 5754 5752 5750 5748 5746 5743 5741 5738 5735 5732 5728 5725 5721 5717 5713 5709 5704 5699 5693 5688 5682 5676 5671
5782 5780 5778 5777 5776 5774 5773 5772 5770 5769 5768 5767 5766 5765 5763 5762 5760 5758 5756 5754 5753 5751 5749 5747 5744 5741 5738 5736 5733 5729 5725 5721 5718 5713 5709 5705 5700 5694 5688 5683 5677 5671 5665
5781 5780 5778 5777 5776 5775 5773 5772 5771 5769 5768 5767 5766 5764 5763 5761 5759 5758 5756 5754 5752 5750 5748 5745 5742 5739 5736 5733 5730 5726 5722 5718 5714 5710 5705 5700 5695 5690 5684 5679 5673 5667 5661
5781 5779 5778 5777 5776 5774 5773 5772 5771 5770 5768 5767 5766 5764 5762 5760 5759 5757 5755 5753 5751 5749 5746 5744 5741 5737 5734 5730 5727 5723 5719 5715 5711 5706 5702 5697 5692 5686 5680 5674 5669 5663 5656
5780 5779 5777 5776 5775 5774 5773 5772 5771 5769 5768 5766 5765 5763 5762 5760 5758 5756 5754 5752 5750 5748 5745 5742 5739 5736 5732 5728 5724 5720 5716 5712 5707 5702 5698 5693 5687 5682 5676 5670 5664 5658 5652
5779 5778 5777 5776 5774 5773 5772 5771 5770 5769 5767 5766 5764 5763 5761 5759 5757 5755 5753 5750 5748 5746 5744 5740 5737 5733 5730 5726 5721 5717 5713 5708 5703 5698 5694 5688 5683 5677 5672 5666 5660 5654 5647
5778 5777 5776 5775 5774 5773 5772 5770 5769 5768 5766 5765 5763 5762 5760 5758 5756 5754 5752 5749 5746 5744 5741 5738 5735 5731 5727 5723 5719 5714 5710 5705 5700 5695 5689 5684 5679 5673 5668 5662 5656 5650 5644